Location: Key Biscayne
(25.6930°N, 80.1630°W)
Time: 20:46:44
(UTC-04:00)

Vanguard 1 Rocket - All Passes

Search period start: 15 July 2018 00:00
Search period end: 25 July 2018 00:00
Orbit: 652 x 4225 km, 34.3° (Epoch: 15 July)

Date Brightness Start Highest point End Pass type
(mag) Time Alt. Az. Time Alt. Az. Time Alt. Az.
15 Jul - 05:16:26 10° S 05:30:26 17° SE 05:42:43 10° ESE visible
15 Jul - 07:39:26 10° SSW 08:02:50 48° SE 08:17:26 10° ENE daylight
15 Jul - 10:11:54 10° WSW 10:33:08 87° NNW 10:43:41 10° ENE daylight
15 Jul - 12:48:22 10° W 13:01:28 51° N 13:08:18 10° ENE daylight
15 Jul - 15:20:52 10° WNW 15:28:28 58° NNE 15:33:12 10° E daylight
15 Jul - 17:49:10 10° W 17:53:08 25° SW 17:56:47 10° SSE daylight
16 Jul - 06:26:30 10° SSW 06:48:21 35° SE 07:04:21 10° E daylight
16 Jul - 08:55:53 10° SW 09:19:46 75° SSE 09:32:39 10° ENE daylight
16 Jul - 11:31:45 10° W 11:49:07 62° NNW 11:57:43 10° ENE daylight
16 Jul - 14:07:03 10° WNW 14:16:58 49° N 14:22:31 10° E daylight
16 Jul - 16:36:43 10° WNW 16:42:40 59° SSW 16:47:00 10° SE daylight
17 Jul - 05:15:30 10° S 05:33:34 24° SE 05:49:00 10° E visible
17 Jul - 07:40:59 10° SW 08:05:44 59° SSE 08:21:00 10° ENE daylight
17 Jul - 10:14:45 10° WSW 10:36:14 77° NNW 10:46:59 10° ENE daylight
17 Jul - 12:51:45 10° WNW 13:04:58 51° N 13:11:50 10° ENE daylight
17 Jul - 15:23:57 10° WNW 15:31:52 77° NNE 15:36:41 10° ESE daylight
17 Jul - 17:53:26 10° WSW 17:56:10 15° SW 17:58:43 10° S daylight
18 Jul - 04:08:50 10° SSE 04:18:35 13° SE 04:28:02 10° ESE visible
18 Jul - 06:27:30 10° SSW 06:51:11 44° SE 07:08:20 10° ENE daylight
18 Jul - 08:58:15 10° WSW 09:22:43 86° SSE 09:35:57 10° ENE daylight
18 Jul - 11:35:06 10° W 11:52:28 58° NNW 12:01:08 10° ENE daylight
18 Jul - 14:10:12 10° WNW 14:20:29 57° N 14:26:07 10° E daylight
18 Jul - 16:40:06 10° WNW 16:45:45 38° SW 16:49:55 10° SSE daylight
19 Jul - 05:15:42 10° SSW 05:36:26 31° SE 05:54:00 10° E visible
19 Jul - 07:42:53 10° SW 08:08:33 69° SSE 08:24:23 10° ENE daylight
19 Jul - 10:17:49 10° WSW 10:39:24 70° NNW 10:50:19 10° ENE daylight
19 Jul - 12:55:02 10° WNW 13:08:30 53° N 13:15:26 10° ENE daylight
19 Jul - 15:27:02 10° WNW 15:35:09 79° SSW 15:40:01 10° ESE daylight
20 Jul - 04:06:28 10° S 04:21:39 19° SE 04:36:18 10° E visible
20 Jul - 06:28:56 10° SSW 06:53:54 53° SE 07:11:59 10° ENE daylight
20 Jul - 09:00:54 10° WSW 09:25:42 85° NNW 09:39:13 10° ENE daylight
20 Jul - 11:38:28 10° W 11:55:54 57° N 12:04:38 10° ENE daylight
20 Jul - 14:13:15 10° WNW 14:23:57 69° NNE 14:29:40 10° E daylight
20 Jul - 16:43:46 10° W 16:48:42 24° SW 16:52:28 10° SSE daylight
21 Jul - 05:16:34 10° SSW 05:39:05 39° SE 05:58:14 10° E visible
21 Jul - 07:45:05 10° SW 08:11:21 79° SSE 08:27:39 10° ENE daylight
21 Jul - 10:21:03 10° W 10:42:39 65° NNW 10:53:41 10° ENE daylight
21 Jul - 12:58:13 10° WNW 13:12:01 58° N 13:19:02 10° E daylight
21 Jul - 15:30:12 10° WNW 15:38:17 56° SW 15:43:10 10° SE daylight
22 Jul - 04:06:09 10° S 04:24:23 26° SE 04:42:08 10° E visible
22 Jul - 06:30:43 10° SW 06:56:32 63° SE 07:15:24 10° ENE daylight
22 Jul - 09:03:48 10° WSW 09:28:44 77° NNW 09:42:30 10° ENE daylight
22 Jul - 11:41:47 10° WNW 11:59:22 57° N 12:08:10 10° ENE daylight
22 Jul - 14:16:16 10° WNW 14:27:18 86° NNE 14:33:06 10° ESE daylight
22 Jul - 16:47:59 10° W 16:51:30 15° SW 16:54:24 10° S daylight
23 Jul - 02:59:47 10° SSE 03:09:54 14° SE 03:20:27 10° ESE visible
23 Jul - 05:17:54 10° SSW 05:41:35 47° SE 06:02:02 10° ENE visible
23 Jul - 07:47:35 10° WSW 08:14:10 88° SSE 08:30:53 10° ENE daylight
23 Jul - 10:24:21 10° W 10:45:59 62° N 10:57:07 10° ENE daylight
23 Jul - 13:01:17 10° WNW 13:15:30 66° NNE 13:22:35 10° E daylight
23 Jul - 15:33:29 10° WNW 15:41:14 39° SW 15:46:02 10° SSE daylight
24 Jul - 04:06:46 10° SSW 04:26:53 33° SE 04:46:51 10° E visible
24 Jul - 06:32:49 10° SW 06:59:08 73° SSE 07:18:39 10° ENE daylight
24 Jul - 09:06:53 10° W 09:31:52 71° NNW 09:45:49 10° ENE daylight
24 Jul - 11:45:01 10° WNW 12:02:53 60° N 12:11:45 10° E daylight
24 Jul - 14:19:15 10° WNW 14:30:28 74° SSW 14:36:22 10° SE daylight
